This is the latest recevied weather packets stored in our database for station/object HB9TJR-3. If no packets are shown the sender has not sent any weather packets the latest 10 day(s).
| Time | Temp. | Humidity | Pressure | Rain* | Wind** | Luminosity | Snow |
|---|---|---|---|---|---|---|---|
| 1787775331 | 18.33° C | 80% | 867.8 hPa | 0 mm | - | - | - |
| 1787774371 | 18.33° C | 76% | 867.8 hPa | 0 mm | - | - | - |
| 1787773411 | 18.33° C | 76% | 867.8 hPa | 0 mm | - | - | - |
| 1787772451 | 18.33° C | 78% | 867.8 hPa | 0 mm | - | - | - |
| 1787771491 | 18.33° C | 78% | 867.6 hPa | 0 mm | - | - | - |
| 1787770531 | 18.33° C | 78% | 867.6 hPa | 0 mm | - | - | - |
| 1787769571 | 18.89° C | 79% | 867.6 hPa | 0 mm | - | - | - |
| 1787768611 | 18.89° C | 78% | 867.7 hPa | 0 mm | - | - | - |
| 1787767651 | 18.89° C | 79% | 867.8 hPa | 0 mm | - | - | - |
| 1787766691 | 18.89° C | 80% | 867.8 hPa | 0 mm | - | - | - |
| 1787765731 | 18.89° C | 80% | 867.8 hPa | 0 mm | - | - | - |
| 1787764771 | 19.44° C | 79% | 867.8 hPa | 0 mm | - | - | - |
| 1787763811 | 19.44° C | 78% | 867.9 hPa | 0 mm | - | - | - |
| 1787762851 | 20° C | 78% | 867.9 hPa | 0 mm | - | - | - |
| 1787761891 | 19.44° C | 77% | 867.9 hPa | 0 mm | - | - | - |
| 1787759971 | 20° C | 78% | 868 hPa | 0 mm | - | - | - |
| 1787759014 | 20° C | 76% | 868.2 hPa | 0 mm | - | - | - |
| 1787759011 | 20° C | 76% | 868.2 hPa | 0 mm | - | - | - |
| 1787758055 | 20° C | 76% | 868 hPa | 0 mm | - | - | - |
| 1787758051 | 20° C | 76% | 868 hPa | 0 mm | - | - | - |
| 1787757091 | 20° C | 76% | 868 hPa | 0 mm | - | - | - |
| 1787756131 | 20.56° C | 75% | 868.1 hPa | 0 mm | - | - | - |
| 1787755171 | 20° C | 77% | 868 hPa | 0 mm | - | - | - |
| 1787754214 | 20° C | 76% | 868.2 hPa | 0 mm | - | - | - |
| 1787754211 | 20° C | 76% | 868.2 hPa | 0 mm | - | - | - |
* Rain latest hour (hover to see other rain measurements)
** Current wind speed in m/s (hover to see current wind gust speed)